Location: *
(46.1200°N, 11.2700°E)
Time: 15:37:06
(UTC+00:00)

Cosmos 1844 - Pass Details

Date: 02 March 2021
Orbit: 823 x 868 km, 70.9° (Epoch: 22 April)

Event Time Altitude Azimuth Distance (km) Brightness Sun altitude
Rises 18:47:36 0° 333° (NNW) 3,459 7.4 -18.9°
Reaches altitude 10° 18:50:05 10° 335° (NNW) 2,515 6.6 -19.3°
Maximum altitude 18:55:54 82° 63° (ENE) 872 3.6 -20.3°
Enters shadow 18:59:05 28° 149° (SSE) 1,558 4.7 -20.8°
